Location: Krasnoyarskiy Pitomnik
(51.1333°N, 71.6167°E)
Time: 13:29:58
(UTC+00:00)

DNEPR OBJECT AF - Visible Passes

Search period start: 12 July 2024 00:00
Search period end: 22 July 2024 00:00
Orbit: 557 x 626 km, 97.7° (Epoch: 12 July)

Date Brightness Start Highest point End Pass type
(mag) Time Alt. Az. Time Alt. Az. Time Alt. Az.
12 Jul ? 21:41:54 10° NE 21:45:24 27° E 21:48:56 10° SSE visible
13 Jul ? 21:50:09 10° NNE 21:53:51 32° E 21:57:36 10° SSE visible
14 Jul ? 21:58:25 10° NNE 22:02:18 38° E 22:06:12 10° SSE visible
15 Jul ? 22:06:43 10° NNE 22:10:42 47° E 22:14:45 10° S visible
16 Jul ? 22:15:01 10° NNE 22:19:05 57° E 22:23:13 10° S visible
17 Jul ? 22:23:19 10° NNE 22:27:27 69° ESE 22:31:38 10° S visible
18 Jul ? 20:58:54 10° ENE 20:59:35 10° E 21:00:15 10° E visible
18 Jul ? 22:31:37 10° NNE 22:35:47 84° ESE 22:40:00 10° SSW visible
19 Jul ? 21:06:09 10° ENE 21:08:00 13° E 21:09:52 10° ESE visible
20 Jul ? 21:13:55 10° NE 21:16:24 15° E 21:18:53 10° SE visible
21 Jul ? 21:21:51 10° NE 21:24:46 18° E 21:27:43 10° SE visible
